Hourly Data Report for October 08, 2016

CORAL HARBOUR A
NUNAVUT

64°11'36.000" N
83°21'34.000" W
62.20 m
2301002
71915
YZS

Download Data

Hourly Data (October 2016)
Hourly Data Report for October 8, 2016
TIME
LST
Temp Definition
°C
Dew Point Definition
°C
Rel Hum Definition
%
Precip. Amount Definition
mm

Wind Dir Definition
10's deg

Wind Spd Definition
km/h
Visibility Definition
km
Stn Press Definition
kPa
Hmdx Definition


Wind Chill Definition


Weather Definition


00:00 -5.2 -6.3 92   33 16 24.1 101.44   -11 LegendNANA
01:00 -5.7 -6.9 91   33 16 24.1 101.38   -12 Clear
02:00 -5.3 -6.8 89   34 11 24.1 101.37   -10 LegendNANA
03:00 -2.1 -5.1 80   3 18 24.1 101.35   -8 LegendNANA
04:00 -2.2 -4.9 82   36 14 24.1 101.31   -7 Mainly Clear
05:00 -1.8 -4.3 83   36 14 24.1 101.28   -6 LegendNANA
06:00 -1.7 -4.4 82   32 13 24.1 101.24   -6 LegendNANA
07:00 -1.8 -4.0 85   33 9 24.1 101.23   -5 Mostly Cloudy
08:00 -1.7 -4.2 83   35 21 24.1 101.20   -8 LegendNANA
09:00 -1.1 -4.8 76   1 24 24.1 101.16   -7 LegendNANA
10:00 -1.0 -4.7 76   2 18 24.1 101.14   -6 Mostly Cloudy
11:00 -1.1 -5.2 74   36 18 24.1 101.11   -6 LegendNANA
12:00 -0.6 -5.2 71   2 20 24.1 101.07   -6 LegendNANA
13:00 -0.3 -4.9 71   1 21 24.1 101.02   -6 Mostly Cloudy
14:00 -0.2 -4.5 73   36 21 24.1 101.01   -6 LegendNANA
15:00 -1.0 -5.4 72   35 20 24.1 100.99   -7 LegendNANA
16:00 -1.4 -5.3 75   1 23 24.1 100.99   -7 Mainly Clear
17:00 -2.3 -5.5 79   2 9 24.1 101.04   -6 LegendNANA
18:00 -3.5 -5.8 84   35 15 24.1 101.03   -9 LegendNANA
19:00 -4.0 -5.9 87   33 14 24.1 101.02   -9 Mostly Cloudy
20:00 -4.8 -6.2 90   34 19 24.1 101.00   -11 LegendNANA
21:00 -5.5 -6.7 91   35 11 24.1 100.99   -10 LegendNANA
22:00 -5.3 -6.4 92   30 9 24.1 100.96   -9 Mainly Clear
23:00 -4.7 -6.1 90   30 8 24.1 100.92   -8 LegendNANA

Notes on Data Quality.

Legend

  • E = Estimated
  • M = Missing
  • NA = Not Available*
  • [empty] = Indicates an unobserved value
Date modified: